CW9561 Weather Reports


Display with metric or nautical units.
time (UTC)temp
F
wind
direction
speed
MPH
gust
MPH
rain 1hr
in
rain 24hr
in
rain mn
in
humidity
%
barometer
mb
20260905200025 77 121 0.0 0.0 0.00 0.00 0.00 30 1027.0
20260905195026 77 213 1.0 0.0 0.00 0.00 0.00 31 1027.3
20260905194022 76 278 1.0 0.0 0.00 0.00 0.00 30 1027.4
20260905193023 75 292 1.0 0.0 0.00 0.00 0.00 32 1027.7
20260905192038 73 167 0.0 0.0 0.00 0.00 0.00 32 1027.9
20260905191034 73 181 1.0 0.0 0.00 0.00 0.00 34 1027.9
20260905190019 74 77 1.0 0.0 0.00 0.00 0.00 35 1027.8
20260905185022 73 121 1.0 0.0 0.00 0.00 0.00 35 1027.9
20260905184040 72 87 2.0 0.0 0.00 0.00 0.00 39 1028.1
20260905183018 71 111 1.0 0.0 0.00 0.00 0.00 41 1028.1
20260905182024 70 95 3.0 0.0 0.00 0.00 0.00 41 1028.2
20260905181021 69 121 4.0 0.0 0.00 0.00 0.00 42 1028.3
20260905180022 70 92 1.0 0.0 0.00 0.00 0.00 41 1028.3
20260905175038 72 192 1.0 0.0 0.00 0.00 0.00 40 1028.4
20260905174034 70 150 2.0 0.0 0.00 0.00 0.00 41 1028.5
20260905172020 67 92 1.0 0.0 0.00 0.00 0.00 47 1028.7
20260905171038 66 69 2.0 0.0 0.00 0.00 0.00 49 1028.9
20260905170037 65 76 1.0 0.0 0.00 0.00 0.00 49 1029.2
20260905164040 65 92 1.0 0.0 0.00 0.00 0.00 49 1029.0
20260905163017 64 90 1.0 0.0 0.00 0.00 0.00 50 1029.0
20260905162038 62 331 0.0 0.0 0.00 0.00 0.00 52 1028.9
20260905161034 61 68 0.0 0.0 0.00 0.00 0.00 52 1029.0
20260905160036 60 68 0.0 0.0 0.00 0.00 0.00 54 1029.1
20260905155035 62 78 0.0 0.0 0.00 0.00 0.00 51 1029.0
20260905154032 61 341 0.0 0.0 0.00 0.00 0.00 53 1029.0
20260905153031 61 72 0.0 0.0 0.00 0.00 0.00 54 1028.4
20260905152030 60 86 0.0 0.0 0.00 0.00 0.00 55 1028.6
20260905151029 58 86 0.0 0.0 0.00 0.00 0.00 56 1028.6
20260905150026 59 86 0.0 0.0 0.00 0.00 0.00 54 1028.6
20260905145026 59 86 1.0 0.0 0.00 0.00 0.00 56 1028.7
20260905143031 59 280 0.0 0.0 0.00 0.00 0.00 56 1028.8
20260905142027 57 280 0.0 0.0 0.00 0.00 0.00 58 1028.9
20260905141025 57 281 0.0 0.0 0.00 0.00 0.00 58 1028.9
20260905135020 54 281 0.0 0.0 0.00 0.00 0.00 61 1028.9
20260905134023 51 280 0.0 0.0 0.00 0.00 0.00 68 1029.1
20260905131022 47 280 0.0 0.0 0.00 0.00 0.00 71 1027.9
20260905130021 46 280 0.0 0.0 0.00 0.00 0.00 72 1027.9
20260905125022 45 280 0.0 0.0 0.00 0.00 0.00 73 1027.9
20260905124021 45 280 2.0 0.0 0.00 0.00 0.00 73 1027.9
20260905121038 46 280 2.0 0.0 0.00 0.00 0.00 70 1028.2
20260905120039 47 280 0.0 0.0 0.00 0.00 0.00 69 1028.1
20260905115036 47 280 0.0 0.0 0.00 0.00 0.00 68 1028.1
20260905113038 49 280 0.0 0.0 0.00 0.00 0.00 63 1028.3
20260905112018 49 280 0.0 0.0 0.00 0.00 0.00 64 1028.1
20260905105035 48 280 0.0 0.0 0.00 0.00 0.00 67 1027.1
20260905104036 48 280 0.0 0.0 0.00 0.00 0.00 67 1027.1
20260905103031 49 280 0.0 0.0 0.00 0.00 0.00 65 1027.2
20260905102031 50 280 0.0 0.0 0.00 0.00 0.00 64 1027.1
20260905095035 53 280 0.0 0.0 0.00 0.00 0.00 58 1026.8
20260905094036 54 280 0.0 0.0 0.00 0.00 0.00 57 1026.7
20260905093032 52 280 0.0 0.0 0.00 0.00 0.00 59 1026.5
20260905092032 51 280 0.0 0.0 0.00 0.00 0.00 61 1026.5
20260905091028 49 280 0.0 0.0 0.00 0.00 0.00 64 1026.6
20260905090029 49 280 2.0 0.0 0.00 0.00 0.00 65 1026.6
20260905085030 49 280 0.0 0.0 0.00 0.00 0.00 65 1026.6
20260905084028 50 280 0.0 0.0 0.00 0.00 0.00 64 1026.6
20260905083025 50 280 0.0 0.0 0.00 0.00 0.00 64 1026.6
20260905081024 51 280 0.0 0.0 0.00 0.00 0.00 62 1026.3
20260905080020 51 280 0.0 0.0 0.00 0.00 0.00 61 1026.2
20260905075024 52 280 1.0 0.0 0.00 0.00 0.00 61 1026.2
20260905074020 53 280 0.0 0.0 0.00 0.00 0.00 59 1026.2
20260905073039 54 280 0.0 0.0 0.00 0.00 0.00 56 1026.3
20260905072020 55 280 0.0 0.0 0.00 0.00 0.00 55 1026.3
20260905071037 55 280 0.0 0.0 0.00 0.00 0.00 54 1026.1
20260905070033 56 280 0.0 0.0 0.00 0.00 0.00 53 1025.9
20260905063022 56 280 0.0 0.0 0.00 0.00 0.00 52 1026.0
20260905062037 56 280 0.0 0.0 0.00 0.00 0.00 53 1026.0
20260905061036 56 280 0.0 0.0 0.00 0.00 0.00 53 1026.1
20260905060033 57 280 0.0 0.0 0.00 0.00 0.00 53 1026.1
20260905055036 57 280 0.0 0.0 0.00 0.00 0.00 52 1026.0
20260905054033 57 280 0.0 0.0 0.00 0.00 0.00 52 1025.8
20260905053029 56 280 0.0 0.0 0.00 0.00 0.00 53 1025.8
20260905052026 57 280 0.0 0.0 0.00 0.00 0.00 53 1026.0
20260905051026 56 280 0.0 0.0 0.00 0.00 0.00 54 1026.1
20260905050027 55 280 0.0 0.0 0.00 0.00 0.00 55 1026.0
20260905045023 54 280 0.0 0.0 0.00 0.00 0.00 57 1026.1
20260905044039 53 280 0.0 0.0 0.00 0.00 0.00 59 1026.2
20260905043035 53 280 0.0 0.0 0.00 0.00 0.00 60 1026.1
20260905041035 55 280 0.0 0.0 0.00 0.00 0.00 57 1026.1
20260905040034 56 280 0.0 0.0 0.00 0.00 0.00 55 1026.1
20260905035028 57 280 1.0 0.0 0.00 0.00 0.00 54 1026.1
20260905034026 56 280 2.0 0.0 0.00 0.00 0.00 54 1026.1
20260905032025 56 280 1.0 0.0 0.00 0.00 0.00 54 1025.9
20260905030022 59 280 0.0 0.0 0.00 0.00 0.00 51 1025.9
20260905024023 60 280 0.0 0.0 0.00 0.00 0.00 49 1025.7
20260905023041 60 280 0.0 0.0 0.00 0.00 0.00 48 1025.6
20260905022037 61 280 0.0 0.0 0.00 0.00 0.00 47 1025.4
20260905021034 62 280 0.0 0.0 0.00 0.00 0.00 45 1025.0
20260905020034 62 280 0.0 0.0 0.00 0.00 0.00 45 1024.9
20260905014036 65 280 0.0 0.0 0.00 0.00 0.00 40 1024.7
20260905011026 68 280 0.0 0.0 0.00 0.00 0.00 37 1024.4
20260905010027 69 211 0.0 0.0 0.00 0.00 0.00 37 1024.4
20260905005022 69 252 0.0 0.0 0.00 0.00 0.00 36 1024.3
20260905004022 70 250 0.0 0.0 0.00 0.00 0.00 35 1024.3
20260905003039 71 203 1.0 0.0 0.00 0.00 0.00 35 1024.3
20260905002036 71 194 1.0 0.0 0.00 0.00 0.00 33 1024.2
20260905001035 71 219 1.0 0.0 0.00 0.00 0.00 33 1024.3
20260904235032 73 227 1.0 0.0 0.00 0.00 0.00 32 1024.3
20260904234034 73 190 1.0 0.0 0.00 0.00 0.00 32 1024.3
20260904232038 74 225 0.0 0.0 0.00 0.00 0.00 31 1024.4
20260904231034 74 187 1.0 0.0 0.00 0.00 0.00 30 1024.5
20260904225028 75 130 1.0 0.0 0.00 0.00 0.00 32 1024.4
20260904223033 76 132 1.0 0.0 0.00 0.00 0.00 30 1024.5
20260904222030 77 259 0.0 0.0 0.00 0.00 0.00 31 1024.4
20260904221030 76 207 1.0 0.0 0.00 0.00 0.00 30 1024.5
20260904215026 76 218 1.0 0.0 0.00 0.00 0.00 30 1024.7
20260904214027 76 213 2.0 0.0 0.00 0.00 0.00 30 1024.8
20260904213027 76 126 0.0 0.0 0.00 0.00 0.00 31 1024.8
20260904212026 75 186 1.0 0.0 0.00 0.00 0.00 31 1024.7
20260904211022 75 266 2.0 0.0 0.00 0.00 0.00 35 1024.8
20260904210023 75 272 2.0 0.0 0.00 0.00 0.00 35 1024.9
20260904205039 76 142 1.0 0.0 0.00 0.00 0.00 33 1024.8
20260904204036 76 168 2.0 0.0 0.00 0.00 0.00 35 1024.8
20260904203032 76 223 2.0 0.0 0.00 0.00 0.00 34 1025.1
20260904202029 74 254 1.0 0.0 0.00 0.00 0.00 34 1025.0
20260904201029 73 161 1.0 0.0 0.00 0.00 0.00 35 1025.4